Location: Luz Observatory
(34.5000°N, 117.2833°W)
Time: 01:46:53
(UTC-07:00)

Cosmos 1484 Rocket - Visible Passes

Search period start: 26 September 2016 00:00
Search period end: 06 October 2016 00:00
Orbit: 509 x 563 km, 97.4° (Epoch: 25 September)

Date Brightness Start Highest point End Pass type
(mag) Time Alt. Az. Time Alt. Az. Time Alt. Az.
26 Sep 6.3 20:17:51 10° WSW 20:18:42 11° W 20:19:33 10° W visible
27 Sep 6.0 20:07:59 10° SW 20:10:01 14° W 20:12:04 10° WNW visible
28 Sep 5.8 19:58:41 10° SW 20:01:19 18° W 20:04:00 10° NW visible
29 Sep 5.4 19:49:34 10° SSW 19:52:38 23° W 19:55:45 10° NW visible
30 Sep 4.9 19:40:36 10° SSW 19:43:58 29° W 19:47:24 10° NW visible
01 Oct 4.4 19:31:43 10° SSW 19:35:18 38° W 19:38:58 10° NNW visible
02 Oct 3.8 19:22:55 10° S 19:26:38 50° W 19:30:28 10° NNW visible
03 Oct 3.2 19:14:11 10° S 19:18:00 67° W 19:21:55 10° NNW visible
04 Oct 2.8 19:05:31 10° SSE 19:09:21 88° WSW 19:13:19 10° NNW visible
05 Oct 2.7 18:56:54 10° SSE 19:00:44 71° ENE 19:04:41 10° N visible
